Year,Month,Day,Hour,Minute,Value (Times are PST for insolation in W/m^2)
2007,08,06,00,00,0.00
2007,08,06,00,01,0.00
2007,08,06,00,02,0.00
2007,08,06,00,03,0.00
2007,08,06,00,04,0.00
2007,08,06,00,05,0.00
2007,08,06,00,06,0.00
2007,08,06,00,07,0.00
2007,08,06,00,08,0.00
2007,08,06,00,09,0.00
2007,08,06,00,10,0.00
2007,08,06,00,11,0.00
2007,08,06,00,12,0.00
2007,08,06,00,13,0.00
2007,08,06,01,02,0.00
2007,08,06,01,03,0.00
2007,08,06,01,04,0.00
2007,08,06,01,05,0.00
2007,08,06,01,06,0.00
2007,08,06,01,07,0.00
2007,08,06,01,08,0.00
2007,08,06,01,09,0.00
2007,08,06,01,10,0.00
2007,08,06,01,11,0.00
2007,08,06,01,12,0.00
2007,08,06,01,13,0.00
2007,08,06,01,14,0.00
2007,08,06,01,15,0.00
2007,08,06,01,16,0.00
2007,08,06,01,17,0.00
2007,08,06,01,18,0.00
2007,08,06,01,19,0.00
2007,08,06,01,20,0.00
2007,08,06,01,21,0.00
2007,08,06,01,22,0.00
2007,08,06,01,23,0.00
2007,08,06,01,24,0.00
2007,08,06,01,25,0.00
2007,08,06,01,26,0.00
2007,08,06,01,27,0.00
2007,08,06,01,28,0.00
2007,08,06,01,29,0.00
2007,08,06,01,30,0.00
2007,08,06,01,31,0.00
2007,08,06,01,32,0.00
2007,08,06,01,33,0.00
2007,08,06,01,34,0.00
2007,08,06,01,35,0.00
2007,08,06,01,36,0.00
2007,08,06,01,37,0.00
2007,08,06,01,38,0.00
2007,08,06,01,39,0.00
2007,08,06,01,40,0.00
2007,08,06,01,41,0.00
2007,08,06,01,42,0.00
2007,08,06,01,43,0.00
2007,08,06,01,44,0.00
2007,08,06,01,45,0.00
2007,08,06,01,46,0.00
2007,08,06,01,47,0.00
2007,08,06,01,48,0.00
2007,08,06,01,49,0.00
2007,08,06,01,50,0.00
2007,08,06,01,51,0.00
2007,08,06,01,52,0.00
2007,08,06,01,53,0.00
2007,08,06,01,54,0.00
2007,08,06,01,55,0.00
2007,08,06,01,56,0.00
2007,08,06,01,57,0.00
2007,08,06,01,58,0.00
2007,08,06,01,59,0.00
2007,08,06,02,00,0.00
2007,08,06,02,01,0.00
2007,08,06,02,02,0.00
2007,08,06,02,03,0.00
2007,08,06,02,04,0.00
2007,08,06,02,05,0.00
2007,08,06,02,06,0.00
2007,08,06,02,07,0.00
2007,08,06,02,08,0.00
2007,08,06,02,09,0.00
2007,08,06,02,10,0.00
2007,08,06,02,11,0.00
2007,08,06,02,12,0.00
2007,08,06,02,13,0.00
2007,08,06,02,14,0.00
2007,08,06,02,15,0.00
2007,08,06,02,16,0.00
2007,08,06,02,17,0.00
2007,08,06,02,18,0.00
2007,08,06,02,19,0.00
2007,08,06,02,20,0.00
2007,08,06,02,21,0.00
2007,08,06,02,22,0.00
2007,08,06,02,23,0.00
2007,08,06,02,24,0.00
2007,08,06,02,25,0.00
2007,08,06,02,26,0.00
2007,08,06,02,27,0.00
2007,08,06,02,28,0.00
2007,08,06,02,29,0.00
2007,08,06,02,30,0.00
2007,08,06,02,31,0.00
2007,08,06,02,32,0.00
2007,08,06,02,33,0.00
2007,08,06,02,34,0.00
2007,08,06,02,35,0.00
2007,08,06,02,36,0.00
2007,08,06,02,37,0.00
2007,08,06,02,38,0.00
2007,08,06,02,39,0.00
2007,08,06,02,40,0.00
2007,08,06,02,41,0.00
2007,08,06,02,42,0.00
2007,08,06,02,43,0.00
2007,08,06,02,44,0.00
2007,08,06,02,45,0.00
2007,08,06,02,46,0.00
2007,08,06,02,47,0.00
2007,08,06,02,48,0.00
2007,08,06,02,49,0.00
2007,08,06,02,50,0.00
2007,08,06,02,51,0.00
2007,08,06,02,52,0.00
2007,08,06,02,53,0.00
2007,08,06,02,54,0.00
2007,08,06,02,55,0.00
2007,08,06,02,56,0.00
2007,08,06,02,57,0.00
2007,08,06,02,58,0.00
2007,08,06,02,59,0.00
2007,08,06,03,00,0.00
2007,08,06,03,01,0.00
2007,08,06,03,02,0.00
2007,08,06,03,03,0.00
2007,08,06,03,04,0.00
2007,08,06,03,05,0.00
2007,08,06,03,06,0.00
2007,08,06,03,07,0.00
2007,08,06,03,08,0.00
2007,08,06,03,09,0.00
2007,08,06,03,10,0.00
2007,08,06,03,11,0.00
2007,08,06,03,12,0.00
2007,08,06,03,13,0.00
2007,08,06,03,14,0.00
2007,08,06,03,15,0.00
2007,08,06,03,16,0.00
2007,08,06,03,17,0.00
2007,08,06,03,18,0.00
2007,08,06,03,19,0.00
2007,08,06,03,20,0.00
2007,08,06,03,21,0.00
2007,08,06,03,22,0.00
2007,08,06,03,23,0.00
2007,08,06,03,24,0.00
2007,08,06,03,25,0.00
2007,08,06,03,26,0.00
2007,08,06,03,27,0.00
2007,08,06,03,28,0.00
2007,08,06,03,29,0.00
2007,08,06,03,30,0.00
2007,08,06,03,31,0.00
2007,08,06,03,32,0.00
2007,08,06,03,33,0.00
2007,08,06,03,34,0.00
2007,08,06,03,35,0.00
2007,08,06,03,36,0.00
2007,08,06,03,37,0.00
2007,08,06,03,38,0.00
2007,08,06,03,39,0.00
2007,08,06,03,40,0.00
2007,08,06,03,41,0.00
2007,08,06,03,42,0.00
2007,08,06,03,43,0.00
2007,08,06,03,44,0.00
2007,08,06,03,45,0.00
2007,08,06,03,46,0.00
2007,08,06,03,47,0.00
2007,08,06,03,48,0.00
2007,08,06,03,49,0.00
2007,08,06,03,50,0.00
2007,08,06,03,51,0.00
2007,08,06,03,52,0.00
2007,08,06,03,53,0.00
2007,08,06,03,54,0.00
2007,08,06,03,55,0.00
2007,08,06,03,56,0.00
2007,08,06,03,57,0.00
2007,08,06,03,58,0.00
2007,08,06,03,59,0.00
2007,08,06,04,00,0.00
2007,08,06,04,01,0.00
2007,08,06,04,02,0.00
2007,08,06,04,03,0.00
2007,08,06,04,04,0.00
2007,08,06,04,05,0.00
2007,08,06,04,06,0.00
2007,08,06,04,07,0.00
2007,08,06,04,08,0.00
2007,08,06,04,09,0.00
2007,08,06,04,10,0.00
2007,08,06,04,11,0.00
2007,08,06,04,12,0.00
2007,08,06,04,13,0.00
2007,08,06,04,14,0.00
2007,08,06,04,15,0.00
2007,08,06,04,16,0.00
2007,08,06,04,17,0.00
2007,08,06,04,18,0.00
2007,08,06,04,19,0.00
2007,08,06,04,20,0.00
2007,08,06,04,21,0.00
2007,08,06,04,22,0.00
2007,08,06,04,23,0.00
2007,08,06,04,24,0.00
2007,08,06,04,25,0.00
2007,08,06,04,26,0.00
2007,08,06,04,27,0.00
2007,08,06,04,28,0.00
2007,08,06,04,29,0.00
2007,08,06,04,30,0.00
2007,08,06,04,31,0.00
2007,08,06,04,32,0.00
2007,08,06,04,33,0.00
2007,08,06,04,34,0.00
2007,08,06,04,35,0.00
2007,08,06,04,36,0.00
2007,08,06,04,37,0.00
2007,08,06,04,38,0.00
2007,08,06,04,39,0.00
2007,08,06,04,40,0.00
2007,08,06,04,41,0.00
2007,08,06,04,42,0.00
2007,08,06,04,43,0.00
2007,08,06,04,44,0.00
2007,08,06,04,45,0.00
2007,08,06,04,46,0.00
2007,08,06,04,47,0.00
2007,08,06,04,48,0.00
2007,08,06,04,49,0.00
2007,08,06,04,50,0.00
2007,08,06,04,51,0.00
2007,08,06,04,52,0.00
2007,08,06,04,53,0.00
2007,08,06,04,54,0.00
2007,08,06,04,55,0.00
2007,08,06,04,56,0.00
2007,08,06,04,57,0.00
2007,08,06,04,58,0.00
2007,08,06,04,59,0.00
2007,08,06,05,00,0.00
2007,08,06,05,01,0.00
2007,08,06,05,02,0.00
2007,08,06,05,03,0.00
2007,08,06,05,04,0.00
2007,08,06,05,05,0.00
2007,08,06,05,06,0.00
2007,08,06,05,07,0.00
2007,08,06,05,08,0.00
2007,08,06,05,09,0.00
2007,08,06,05,10,0.00
2007,08,06,05,11,0.00
2007,08,06,05,12,0.00
2007,08,06,05,13,0.00
2007,08,06,05,14,0.00
2007,08,06,05,15,0.00
2007,08,06,05,16,0.00
2007,08,06,05,17,0.00
2007,08,06,05,18,0.00
2007,08,06,05,19,0.00
2007,08,06,05,20,0.00
2007,08,06,05,21,0.00
2007,08,06,05,22,0.00
2007,08,06,05,23,0.00
2007,08,06,05,24,0.00
2007,08,06,05,25,0.00
2007,08,06,05,26,0.00
2007,08,06,05,27,0.00
2007,08,06,05,28,0.00
2007,08,06,05,29,0.00
2007,08,06,05,30,0.00
2007,08,06,05,31,0.00
2007,08,06,05,32,0.00
2007,08,06,05,33,0.00
2007,08,06,05,34,0.00
2007,08,06,05,35,0.00
2007,08,06,05,36,0.00
2007,08,06,05,37,0.00
2007,08,06,05,38,0.00
2007,08,06,05,39,0.00
2007,08,06,05,40,0.00
2007,08,06,05,41,0.00
2007,08,06,05,42,0.00
2007,08,06,05,43,0.00
2007,08,06,05,44,0.00
2007,08,06,05,45,0.00
2007,08,06,05,46,0.00
2007,08,06,05,47,0.00
2007,08,06,05,48,0.00
2007,08,06,05,49,0.00
2007,08,06,05,50,0.00
2007,08,06,05,51,0.00
2007,08,06,05,52,0.00
2007,08,06,05,53,0.00
2007,08,06,05,54,0.00
2007,08,06,05,55,2.90
2007,08,06,05,56,5.00
2007,08,06,05,57,5.00
2007,08,06,05,58,5.00
2007,08,06,05,59,5.00
2007,08,06,06,00,6.20
2007,08,06,06,01,7.00
2007,08,06,06,02,7.00
2007,08,06,06,03,7.00
2007,08,06,06,04,8.20
2007,08,06,06,05,9.00
2007,08,06,06,06,9.00
2007,08,06,06,07,9.00
2007,08,06,06,08,10.10
2007,08,06,06,09,11.00
2007,08,06,06,10,11.00
2007,08,06,06,11,11.00
2007,08,06,06,12,11.60
2007,08,06,06,13,12.00
2007,08,06,06,14,12.00
2007,08,06,06,15,12.00
2007,08,06,06,16,13.10
2007,08,06,06,17,14.00
2007,08,06,06,18,14.00
2007,08,06,06,19,14.00
2007,08,06,06,20,14.00
2007,08,06,06,21,15.20
2007,08,06,06,22,16.00
2007,08,06,06,23,16.00
2007,08,06,06,24,17.10
2007,08,06,06,25,18.00
2007,08,06,06,26,18.00
2007,08,06,06,27,18.00
2007,08,06,06,28,18.50
2007,08,06,06,29,19.00
2007,08,06,06,30,19.00
2007,08,06,06,31,19.00
2007,08,06,06,32,20.10
2007,08,06,06,33,21.00
2007,08,06,06,34,21.00
2007,08,06,06,35,21.00
2007,08,06,06,36,21.00
2007,08,06,06,37,22.10
2007,08,06,06,38,23.00
2007,08,06,06,39,23.00
2007,08,06,06,40,23.00
2007,08,06,06,41,24.10
2007,08,06,06,42,25.00
2007,08,06,06,43,25.00
2007,08,06,06,44,25.00
2007,08,06,06,45,25.60
2007,08,06,06,46,26.00
2007,08,06,06,47,26.00
2007,08,06,06,48,26.00
2007,08,06,06,49,26.00
2007,08,06,06,50,26.00
2007,08,06,06,51,28.10
2007,08,06,06,52,31.10
2007,08,06,06,53,35.70
2007,08,06,06,54,44.50
2007,08,06,06,55,51.20
2007,08,06,06,56,46.40
2007,08,06,06,57,39.10
2007,08,06,06,58,43.90
2007,08,06,06,59,59.40
2007,08,06,07,00,80.20
2007,08,06,07,01,94.40
2007,08,06,07,02,97.00
2007,08,06,07,03,65.70
2007,08,06,07,04,38.30
2007,08,06,07,05,38.70
2007,08,06,07,06,43.30
2007,08,06,07,07,41.80
2007,08,06,07,08,36.70
2007,08,06,07,09,36.10
2007,08,06,07,10,43.60
2007,08,06,07,11,49.00
2007,08,06,07,12,56.20
2007,08,06,07,13,62.00
2007,08,06,07,14,62.00
2007,08,06,07,15,51.00
2007,08,06,07,16,44.20
2007,08,06,07,17,48.80
2007,08,06,07,18,56.00
2007,08,06,07,19,60.00
2007,08,06,07,20,61.10
2007,08,06,07,21,60.80
2007,08,06,07,22,61.10
2007,08,06,07,23,65.80
2007,08,06,07,24,94.20
2007,08,06,07,25,138.20
2007,08,06,07,26,170.60
2007,08,06,07,27,184.90
2007,08,06,07,28,190.80
2007,08,06,07,29,193.00
2007,08,06,07,30,196.90
2007,08,06,07,31,202.40
2007,08,06,07,32,205.20
2007,08,06,07,33,207.60
2007,08,06,07,34,211.20
2007,08,06,07,35,214.60
2007,08,06,07,36,218.30
2007,08,06,07,37,222.80
2007,08,06,07,38,227.20
2007,08,06,07,39,229.00
2007,08,06,07,40,233.40
2007,08,06,07,41,237.00
2007,08,06,07,42,210.20
2007,08,06,07,43,219.00
2007,08,06,07,44,246.00
2007,08,06,07,45,230.60
2007,08,06,07,46,226.80
2007,08,06,07,47,246.60
2007,08,06,07,48,258.60
2007,08,06,07,49,261.10
2007,08,06,07,50,263.10
2007,08,06,07,51,264.00
2007,08,06,07,52,265.60
2007,08,06,07,53,267.00
2007,08,06,07,54,269.20
2007,08,06,07,55,271.50
2007,08,06,07,56,273.10
2007,08,06,07,57,274.00
2007,08,06,07,58,275.10
2007,08,06,07,59,276.00
2007,08,06,08,00,277.10
2007,08,06,08,01,278.50
2007,08,06,08,02,280.10
2007,08,06,08,03,282.10
2007,08,06,08,04,284.20
2007,08,06,08,05,286.10
2007,08,06,08,06,287.50
2007,08,06,08,07,290.20
2007,08,06,08,08,293.10
2007,08,06,08,09,294.50
2007,08,06,08,10,297.20
2007,08,06,08,11,299.00
2007,08,06,08,12,301.80
2007,08,06,08,13,305.10
2007,08,06,08,14,307.10
2007,08,06,08,15,309.60
2007,08,06,08,16,313.20
2007,08,06,08,17,315.00
2007,08,06,08,18,316.60
2007,08,06,08,19,319.10
2007,08,06,08,20,321.10
2007,08,06,08,21,323.60
2007,08,06,08,22,326.10
2007,08,06,08,23,328.60
2007,08,06,08,24,331.10
2007,08,06,08,25,334.20
2007,08,06,08,26,337.10
2007,08,06,08,27,338.50
2007,08,06,08,28,341.20
2007,08,06,08,29,344.10
2007,08,06,08,30,345.50
2007,08,06,08,31,348.20
2007,08,06,08,32,350.00
2007,08,06,08,33,352.80
2007,08,06,08,34,357.20
2007,08,06,08,35,360.70
2007,08,06,08,36,363.10
2007,08,06,08,37,365.60
2007,08,06,08,38,368.10
2007,08,06,08,39,370.10
2007,08,06,08,40,372.60
2007,08,06,08,41,375.10
2007,08,06,08,42,376.00
2007,08,06,08,43,378.80
2007,08,06,08,44,383.20
2007,08,06,08,45,386.10
2007,08,06,08,46,387.50
2007,08,06,08,47,390.20
2007,08,06,08,48,394.20
2007,08,06,08,49,397.60
2007,08,06,08,50,400.10
2007,08,06,08,51,402.60
2007,08,06,08,52,405.10
2007,08,06,08,53,408.20
2007,08,06,08,54,411.60
2007,08,06,08,55,414.10
2007,08,06,08,56,416.10
2007,08,06,08,57,418.60
2007,08,06,08,58,422.20
2007,08,06,08,59,424.50
2007,08,06,09,00,426.10
2007,08,06,09,01,429.20
2007,08,06,09,02,431.60
2007,08,06,09,03,433.10
2007,08,06,09,04,436.80
2007,08,06,09,05,441.20
2007,08,06,09,06,444.10
2007,08,06,09,07,446.60
2007,08,06,09,08,449.10
2007,08,06,09,09,451.10
2007,08,06,09,10,453.60
2007,08,06,09,11,456.10
2007,08,06,09,12,459.20
2007,08,06,09,13,461.50
2007,08,06,09,14,463.10
2007,08,06,09,15,466.20
2007,08,06,09,16,469.60
2007,08,06,09,17,472.10
2007,08,06,09,18,474.10
2007,08,06,09,19,476.60
2007,08,06,09,20,479.10
2007,08,06,09,21,481.60
2007,08,06,09,22,484.10
2007,08,06,09,23,485.00
2007,08,06,09,24,488.90
2007,08,06,09,25,494.20
2007,08,06,09,26,496.50
2007,08,06,09,27,498.10
2007,08,06,09,28,501.20
2007,08,06,09,29,503.50
2007,08,06,09,30,506.20
2007,08,06,09,31,510.20
2007,08,06,09,32,512.00
2007,08,06,09,33,512.00
2007,08,06,09,34,517.50
2007,08,06,09,35,522.00
2007,08,06,09,36,522.00
2007,08,06,09,37,523.10
2007,08,06,09,38,525.70
2007,08,06,09,39,529.20
2007,08,06,09,40,532.10
2007,08,06,09,41,533.50
2007,08,06,09,42,537.30
2007,08,06,09,43,540.00
2007,08,06,09,44,550.50
2007,08,06,09,45,551.30
2007,08,06,09,46,546.10
2007,08,06,09,47,547.50
2007,08,06,09,48,551.30
2007,08,06,09,49,554.50
2007,08,06,09,50,556.10
2007,08,06,09,51,558.10
2007,08,06,09,52,561.20
2007,08,06,09,53,564.70
2007,08,06,09,54,567.10
2007,08,06,09,55,569.20
2007,08,06,09,56,570.50
2007,08,06,09,57,573.20
2007,08,06,09,58,576.10
2007,08,06,09,59,577.50
2007,08,06,10,00,579.10
2007,08,06,10,01,582.20
2007,08,06,10,02,584.00
2007,08,06,10,03,586.80
2007,08,06,10,04,590.10
2007,08,06,10,05,591.50
2007,08,06,10,06,592.00
2007,08,06,10,07,594.20
2007,08,06,10,08,597.70
2007,08,06,10,09,601.30
2007,08,06,10,10,604.10
2007,08,06,10,11,605.00
2007,08,06,10,12,605.50
2007,08,06,10,13,608.20
2007,08,06,10,14,610.00
2007,08,06,10,15,612.80
2007,08,06,10,16,616.10
2007,08,06,10,17,618.10
2007,08,06,10,18,620.10
2007,08,06,10,19,622.70
2007,08,06,10,20,624.00
2007,08,06,10,21,626.20
2007,08,06,10,22,628.50
2007,08,06,10,23,631.20
2007,08,06,10,24,633.00
2007,08,06,10,25,634.70
2007,08,06,10,26,636.00
2007,08,06,10,27,638.20
2007,08,06,10,28,641.70
2007,08,06,10,29,645.20
2007,08,06,10,30,647.00
2007,08,06,10,31,647.00
2007,08,06,10,32,649.80
2007,08,06,10,33,653.10
2007,08,06,10,34,655.10
2007,08,06,10,35,656.50
2007,08,06,10,36,658.10
2007,08,06,10,37,660.10
2007,08,06,10,38,662.10
2007,08,06,10,39,664.70
2007,08,06,10,40,667.10
2007,08,06,10,41,669.10
2007,08,06,10,42,670.50
2007,08,06,10,43,672.10
2007,08,06,10,44,674.10
2007,08,06,10,45,677.20
2007,08,06,10,46,679.00
2007,08,06,10,47,679.50
2007,08,06,10,48,681.10
2007,08,06,10,49,683.10
2007,08,06,10,50,685.10
2007,08,06,10,51,686.00
2007,08,06,10,52,688.80
2007,08,06,10,53,691.00
2007,08,06,10,54,692.70
2007,08,06,10,55,695.10
2007,08,06,10,56,697.10
2007,08,06,10,57,699.10
2007,08,06,10,58,700.50
2007,08,06,10,59,703.20
2007,08,06,11,00,705.00
2007,08,06,11,01,706.10
2007,08,06,11,02,707.00
2007,08,06,11,03,708.70
2007,08,06,11,04,712.20
2007,08,06,11,05,714.00
2007,08,06,11,06,715.70
2007,08,06,11,07,717.00
2007,08,06,11,08,718.10
2007,08,06,11,09,720.10
2007,08,06,11,10,721.50
2007,08,06,11,11,723.10
2007,08,06,11,12,725.10
2007,08,06,11,13,726.00
2007,08,06,11,14,727.10
2007,08,06,11,15,728.00
2007,08,06,11,16,729.70
2007,08,06,11,17,732.10
2007,08,06,11,18,733.00
2007,08,06,11,19,735.20
2007,08,06,11,20,737.50
2007,08,06,11,21,739.10
2007,08,06,11,22,741.10
2007,08,06,11,23,742.00
2007,08,06,11,24,743.70
2007,08,06,11,25,746.10
2007,08,06,11,26,747.00
2007,08,06,11,27,748.10
2007,08,06,11,28,749.00
2007,08,06,11,29,750.70
2007,08,06,11,30,753.10
2007,08,06,11,31,754.00
2007,08,06,11,32,756.20
2007,08,06,11,33,758.50
2007,08,06,11,34,759.00
2007,08,06,11,35,760.10
2007,08,06,11,36,761.00
2007,08,06,11,37,762.10
2007,08,06,11,38,764.10
2007,08,06,11,39,765.50
2007,08,06,11,40,766.00
2007,08,06,11,41,767.10
2007,08,06,11,42,769.10
2007,08,06,11,43,770.00
2007,08,06,11,44,770.00
2007,08,06,11,45,772.80
2007,08,06,11,46,775.00
2007,08,06,11,47,776.10
2007,08,06,11,48,778.70
2007,08,06,11,49,781.10
2007,08,06,11,50,782.00
2007,08,06,11,51,783.10
2007,08,06,11,52,784.00
2007,08,06,11,53,784.00
2007,08,06,11,54,785.10
2007,08,06,11,55,788.80
2007,08,06,11,56,791.00
2007,08,06,11,57,789.90
2007,08,06,11,58,792.80
2007,08,06,11,59,798.20
2007,08,06,12,00,796.20
2007,08,06,12,01,791.90
2007,08,06,12,02,793.20
2007,08,06,12,03,795.50
2007,08,06,12,04,795.50
2007,08,06,12,05,795.50
2007,08,06,12,06,797.10
2007,08,06,12,07,798.00
2007,08,06,12,08,799.10
2007,08,06,12,09,800.00
2007,08,06,12,10,801.10
2007,08,06,12,11,802.00
2007,08,06,12,12,802.50
2007,08,06,12,13,803.00
2007,08,06,12,14,805.20
2007,08,06,12,15,807.00
2007,08,06,12,16,807.00
2007,08,06,12,17,807.00
2007,08,06,12,18,808.10
2007,08,06,12,19,809.00
2007,08,06,12,20,809.00
2007,08,06,12,21,810.70
2007,08,06,12,22,813.10
2007,08,06,12,23,815.10
2007,08,06,12,24,813.80
2007,08,06,12,25,813.10
2007,08,06,12,26,815.10
2007,08,06,12,27,814.90
2007,08,06,12,28,815.10
2007,08,06,12,29,816.00
2007,08,06,12,30,816.50
2007,08,06,12,31,817.00
2007,08,06,12,32,816.50
2007,08,06,12,33,816.50
2007,08,06,12,34,817.00
2007,08,06,12,35,817.00
2007,08,06,12,36,819.20
2007,08,06,12,37,821.00
2007,08,06,12,38,822.10
2007,08,06,12,39,821.90
2007,08,06,12,40,821.00
2007,08,06,12,41,822.10
2007,08,06,12,42,823.50
2007,08,06,12,43,824.00
2007,08,06,12,44,824.00
2007,08,06,12,45,825.10
2007,08,06,12,46,825.00
2007,08,06,12,47,824.00
2007,08,06,12,48,825.10
2007,08,06,12,49,826.00
2007,08,06,12,50,826.00
2007,08,06,12,51,826.00
2007,08,06,12,52,827.10
2007,08,06,12,53,828.00
2007,08,06,12,54,828.00
2007,08,06,12,55,828.00
2007,08,06,12,56,829.10
2007,08,06,12,57,830.00
2007,08,06,12,58,828.90
2007,08,06,12,59,829.10
2007,08,06,13,00,830.00
2007,08,06,13,01,830.50
2007,08,06,13,02,831.00
2007,08,06,13,03,831.00
2007,08,06,13,04,831.00
2007,08,06,13,05,831.00
2007,08,06,13,06,832.10
2007,08,06,13,07,833.00
2007,08,06,13,08,831.90
2007,08,06,13,09,832.10
2007,08,06,13,10,833.00
2007,08,06,13,11,834.10
2007,08,06,13,12,833.90
2007,08,06,13,13,833.00
2007,08,06,13,14,833.00
2007,08,06,13,15,834.10
2007,08,06,13,16,835.00
2007,08,06,13,17,835.00
2007,08,06,13,18,833.90
2007,08,06,13,19,833.00
2007,08,06,13,20,833.00
2007,08,06,13,21,834.10
2007,08,06,13,22,833.90
2007,08,06,13,23,833.00
2007,08,06,13,24,831.90
2007,08,06,13,25,832.10
2007,08,06,13,26,833.00
2007,08,06,13,27,833.00
2007,08,06,13,28,833.00
2007,08,06,13,29,831.90
2007,08,06,13,30,832.10
2007,08,06,13,31,834.10
2007,08,06,13,32,833.90
2007,08,06,13,33,831.90
2007,08,06,13,34,831.00
2007,08,06,13,35,832.10
2007,08,06,13,36,833.00
2007,08,06,13,37,831.90
2007,08,06,13,38,831.00
2007,08,06,13,39,832.10
2007,08,06,13,40,831.90
2007,08,06,13,41,831.00
2007,08,06,13,42,829.30
2007,08,06,13,43,829.10
2007,08,06,13,44,831.70
2007,08,06,13,45,831.30
2007,08,06,13,46,830.00
2007,08,06,13,47,830.00
2007,08,06,13,48,830.00
2007,08,06,13,49,826.70
2007,08,06,13,50,824.00
2007,08,06,13,51,824.00
2007,08,06,13,52,824.00
2007,08,06,13,53,824.00
2007,08,06,13,54,824.00
2007,08,06,13,55,823.50
2007,08,06,13,56,821.90
2007,08,06,13,57,821.00
2007,08,06,13,58,822.10
2007,08,06,13,59,823.00
2007,08,06,14,00,821.90
2007,08,06,14,01,822.10
2007,08,06,14,02,821.90
2007,08,06,14,03,819.90
2007,08,06,14,04,819.00
2007,08,06,14,05,820.10
2007,08,06,14,06,818.80
2007,08,06,14,07,817.00
2007,08,06,14,08,817.00
2007,08,06,14,09,815.30
2007,08,06,14,10,815.10
2007,08,06,14,11,813.80
2007,08,06,14,12,813.10
2007,08,06,14,13,812.90
2007,08,06,14,14,810.90
2007,08,06,14,15,811.10
2007,08,06,14,16,810.30
2007,08,06,14,17,809.00
2007,08,06,14,18,809.50
2007,08,06,14,19,808.30
2007,08,06,14,20,807.00
2007,08,06,14,21,807.00
2007,08,06,14,22,807.00
2007,08,06,14,23,807.00
2007,08,06,14,24,805.90
2007,08,06,14,25,805.00
2007,08,06,14,26,803.30
2007,08,06,14,27,803.60
2007,08,06,14,28,803.30
2007,08,06,14,29,802.00
2007,08,06,14,30,800.90
2007,08,06,14,31,801.10
2007,08,06,14,32,802.00
2007,08,06,14,33,799.80
2007,08,06,14,34,798.00
2007,08,06,14,35,796.90
2007,08,06,14,36,796.00
2007,08,06,14,37,796.00
2007,08,06,14,38,795.50
2007,08,06,14,39,793.90
2007,08,06,14,40,793.00
2007,08,06,14,41,791.90
2007,08,06,14,42,789.90
2007,08,06,14,43,788.50
2007,08,06,14,44,786.90
2007,08,06,14,45,786.00
2007,08,06,14,46,784.90
2007,08,06,14,47,784.00
2007,08,06,14,48,782.90
2007,08,06,14,49,782.00
2007,08,06,14,50,780.90
2007,08,06,14,51,780.00
2007,08,06,14,52,779.50
2007,08,06,14,53,777.90
2007,08,06,14,54,777.00
2007,08,06,14,55,775.90
2007,08,06,14,56,773.90
2007,08,06,14,57,773.00
2007,08,06,14,58,772.50
2007,08,06,14,59,770.90
2007,08,06,15,00,768.90
2007,08,06,15,01,766.90
2007,08,06,15,02,765.50
2007,08,06,15,03,765.00
2007,08,06,15,04,763.90
2007,08,06,15,05,763.00
2007,08,06,15,06,761.90
2007,08,06,15,07,759.90
2007,08,06,15,08,758.50
2007,08,06,15,09,758.00
2007,08,06,15,10,756.90
2007,08,06,15,11,754.90
2007,08,06,15,12,754.00
2007,08,06,15,13,752.90
2007,08,06,15,14,750.30
2007,08,06,15,15,749.00
2007,08,06,15,16,749.00
2007,08,06,15,17,747.90
2007,08,06,15,18,745.90
2007,08,06,15,19,744.50
2007,08,06,15,20,744.00
2007,08,06,15,21,742.00
2007,08,06,15,22,740.00
2007,08,06,15,23,738.90
2007,08,06,15,24,737.50
2007,08,06,15,25,735.90
2007,08,06,15,26,733.90
2007,08,06,15,27,731.90
2007,08,06,15,28,731.00
2007,08,06,15,29,729.30
2007,08,06,15,30,728.00
2007,08,06,15,31,725.80
2007,08,06,15,32,724.00
2007,08,06,15,33,722.90
2007,08,06,15,34,720.30
2007,08,06,15,35,719.00
2007,08,06,15,36,718.00
2007,08,06,15,37,715.90
2007,08,06,15,38,714.50
2007,08,06,15,39,712.90
2007,08,06,15,40,712.00
2007,08,06,15,41,709.80
2007,08,06,15,42,707.50
2007,08,06,15,43,707.00
2007,08,06,15,44,705.90
2007,08,06,15,45,703.90
2007,08,06,15,46,701.90
2007,08,06,15,47,699.30
2007,08,06,15,48,698.00
2007,08,06,15,49,696.90
2007,08,06,15,50,694.90
2007,08,06,15,51,693.50
2007,08,06,15,52,692.00
2007,08,06,15,53,688.80
2007,08,06,15,54,687.00
2007,08,06,15,55,686.50
2007,08,06,15,56,684.90
2007,08,06,15,57,682.90
2007,08,06,15,58,680.90
2007,08,06,15,59,679.50
2007,08,06,16,00,677.90
2007,08,06,16,01,675.90
2007,08,06,16,02,675.00
2007,08,06,16,03,673.90
2007,08,06,16,04,670.20
2007,08,06,16,05,666.90
2007,08,06,16,06,666.00
2007,08,06,16,07,665.00
2007,08,06,16,08,662.30
2007,08,06,16,09,659.90
2007,08,06,16,10,657.30
2007,08,06,16,11,656.00
2007,08,06,16,12,654.00
2007,08,06,16,13,650.90
2007,08,06,16,14,648.30
2007,08,06,16,15,647.00
2007,08,06,16,16,645.90
2007,08,06,16,17,643.90
2007,08,06,16,18,642.50
2007,08,06,16,19,640.90
2007,08,06,16,20,638.90
2007,08,06,16,21,636.30
2007,08,06,16,22,632.80
2007,08,06,16,23,631.00
2007,08,06,16,24,629.40
2007,08,06,16,25,626.90
2007,08,06,16,26,624.90
2007,08,06,16,27,622.90
2007,08,06,16,28,620.30
2007,08,06,16,29,617.90
2007,08,06,16,30,615.90
2007,08,06,16,31,615.00
2007,08,06,16,32,613.30
2007,08,06,16,33,609.80
2007,08,06,16,34,606.90
2007,08,06,16,35,605.50
2007,08,06,16,36,603.90
2007,08,06,16,37,601.90
2007,08,06,16,38,599.90
2007,08,06,16,39,597.30
2007,08,06,16,40,593.90
2007,08,06,16,41,592.00
2007,08,06,16,42,590.50
2007,08,06,16,43,588.00
2007,08,06,16,44,586.00
2007,08,06,16,45,583.50
2007,08,06,16,46,581.00
2007,08,06,16,47,578.90
2007,08,06,16,48,577.50
2007,08,06,16,49,573.90
2007,08,06,16,50,570.50
2007,08,06,16,51,568.90
2007,08,06,16,52,566.90
2007,08,06,16,53,564.90
2007,08,06,16,54,563.50
2007,08,06,16,55,560.80
2007,08,06,16,56,556.90
2007,08,06,16,57,555.00
2007,08,06,16,58,554.50
2007,08,06,16,59,551.80
2007,08,06,17,00,548.90
2007,08,06,17,01,547.50
2007,08,06,17,02,544.80
2007,08,06,17,03,543.00
2007,08,06,17,04,541.30
2007,08,06,17,05,538.90
2007,08,06,17,06,536.90
2007,08,06,17,07,536.00
2007,08,06,17,08,534.30
2007,08,06,17,09,530.80
2007,08,06,17,10,529.00
2007,08,06,17,11,527.40
2007,08,06,17,12,526.00
2007,08,06,17,13,523.80
2007,08,06,17,14,520.90
2007,08,06,17,15,519.40
2007,08,06,17,16,519.00
2007,08,06,17,17,515.20
2007,08,06,17,18,509.80
2007,08,06,17,19,506.90
2007,08,06,17,20,504.40
2007,08,06,17,21,503.00
2007,08,06,17,22,501.90
2007,08,06,17,23,498.80
2007,08,06,17,24,496.50
2007,08,06,17,25,493.90
2007,08,06,17,26,490.90
2007,08,06,17,27,490.00
2007,08,06,17,28,488.40
2007,08,06,17,29,487.00
2007,08,06,17,30,487.00
2007,08,06,17,31,387.50
2007,08,06,17,32,297.00
2007,08,06,17,33,297.00
2007,08,06,17,34,297.00
2007,08,06,17,35,364.00
2007,08,06,17,36,395.00
2007,08,06,17,37,361.80
2007,08,06,17,38,344.50
2007,08,06,17,39,341.70
2007,08,06,17,40,396.80
2007,08,06,17,41,431.00
2007,08,06,17,42,435.20
2007,08,06,17,43,448.40
2007,08,06,17,44,455.40
2007,08,06,17,45,452.90
2007,08,06,17,46,450.90
2007,08,06,17,47,448.90
2007,08,06,17,48,448.00
2007,08,06,17,49,446.40
2007,08,06,17,50,443.90
2007,08,06,17,51,441.90
2007,08,06,17,52,439.90
2007,08,06,17,53,438.50